JST975 YPPH-YMML

Flight info

Callsign JST975
Flight time 3h 14m
Altitude 35000
Route PH H18 BURGU Y53 ROMPA/N0447F370 Y53 ALAXO V279 ML
Aircraft A320/M-SDE3FGHIRWY/LB1

Departure

Time 2026-05-04 09:56
Airport Perth International Airport (YPPH)

Arrival

Time 2026-05-04 13:10
Airport Melbourne Airport (YMML)
Time Latitude Longitude Altitude Speed Heading
2026-05-04 09:54 -31.92970 115.96815 67 ft 1 kts 192°
2026-05-04 09:54 -31.92981 115.96812 60 ft 5 kts 193°
2026-05-04 09:55 -31.93164 115.96757 60 ft 55 kts 194°
2026-05-04 09:55 -31.93729 115.96594 65 ft 111 kts 194°
2026-05-04 09:55 -31.94637 115.96329 68 ft 156 kts 193°
2026-05-04 09:55 -31.95380 115.96107 274 ft 163 kts 195°
2026-05-04 09:56 -31.96454 115.95772 877 ft 161 kts 195°
2026-05-04 09:56 -31.97937 115.95346 1609 ft 166 kts 191°
2026-05-04 09:56 -31.98688 115.95120 1912 ft 172 kts 191°
2026-05-04 09:56 -31.99896 115.94766 2232 ft 188 kts 190°
2026-05-04 09:57 -32.01257 115.94391 2438 ft 213 kts 191°
2026-05-04 09:57 -32.02784 115.93983 2773 ft 236 kts 189°
2026-05-04 09:57 -32.05001 115.94176 3427 ft 251 kts 153°
2026-05-04 09:57 -32.06448 115.95332 4200 ft 254 kts 140°
2026-05-04 09:58 -32.07808 115.96683 5021 ft 257 kts 136°
2026-05-04 09:58 -32.08576 115.97751 5521 ft 260 kts 120°
2026-05-04 09:58 -32.09258 115.99734 6278 ft 264 kts 107°
2026-05-04 10:00 -32.13318 116.15044 10640 ft 315 kts 108°
2026-05-04 10:00 -32.13999 116.17597 10768 ft 337 kts 108°
2026-05-04 10:02 -32.19177 116.37213 14665 ft 370 kts 108°
2026-05-04 10:04 -32.27277 116.56701 18237 ft 391 kts 123°
2026-05-04 10:04 -32.28710 116.59403 18753 ft 395 kts 123°
2026-05-04 10:04 -32.30173 116.62168 19220 ft 399 kts 124°
2026-05-04 10:04 -32.31647 116.64963 19699 ft 402 kts 124°
2026-05-04 10:05 -32.33133 116.67784 20181 ft 406 kts 124°
2026-05-04 10:05 -32.34628 116.70624 20656 ft 409 kts 124°
2026-05-04 10:05 -32.36140 116.73490 21109 ft 412 kts 124°
2026-05-04 10:05 -32.37663 116.76378 21547 ft 416 kts 124°
2026-05-04 10:06 -32.39197 116.79295 21975 ft 418 kts 124°
2026-05-04 10:06 -32.40738 116.82232 22390 ft 421 kts 124°
2026-05-04 10:06 -32.42289 116.85187 22789 ft 424 kts 124°
2026-05-04 10:08 -32.51784 117.03323 24845 ft 441 kts 124°
2026-05-04 10:08 -32.53365 117.06447 25133 ft 445 kts 120°
2026-05-04 10:08 -32.54606 117.09827 25424 ft 451 kts 111°
2026-05-04 10:08 -32.55582 117.13319 25710 ft 453 kts 110°
2026-05-04 10:09 -32.56573 117.16874 26003 ft 456 kts 110°
2026-05-04 10:09 -32.57568 117.20447 26302 ft 458 kts 110°
2026-05-04 10:09 -32.58570 117.24043 26605 ft 460 kts 110°
2026-05-04 10:09 -32.59576 117.27658 26881 ft 463 kts 110°
2026-05-04 10:10 -32.60586 117.31290 27167 ft 465 kts 110°
2026-05-04 10:10 -32.61603 117.34943 27445 ft 468 kts 110°
2026-05-04 10:10 -32.62621 117.38621 27717 ft 471 kts 110°
2026-05-04 10:10 -32.63640 117.42320 27991 ft 473 kts 110°
2026-05-04 10:11 -32.64650 117.45988 28251 ft 475 kts 110°
2026-05-04 10:11 -32.65677 117.49717 28544 ft 476 kts 110°
2026-05-04 10:11 -32.66706 117.53451 28928 ft 475 kts 110°
2026-05-04 10:11 -32.67732 117.57177 29300 ft 475 kts 110°
2026-05-04 10:12 -32.68758 117.60910 29680 ft 475 kts 110°
2026-05-04 10:12 -32.69783 117.64635 30057 ft 475 kts 110°
2026-05-04 10:12 -32.70812 117.68370 30442 ft 475 kts 110°
2026-05-04 10:12 -32.71835 117.72093 30768 ft 475 kts 110°
2026-05-04 10:13 -32.72858 117.75826 31076 ft 475 kts 110°
2026-05-04 10:13 -32.73881 117.79559 31390 ft 475 kts 109°
2026-05-04 10:13 -32.74888 117.83242 31713 ft 475 kts 109°
2026-05-04 10:13 -32.75905 117.86975 32036 ft 476 kts 109°
2026-05-04 10:14 -32.76921 117.90716 32346 ft 476 kts 109°
2026-05-04 10:14 -32.77936 117.94457 32667 ft 476 kts 109°
2026-05-04 10:16 -32.85017 118.20652 34806 ft 477 kts 109°
2026-05-04 10:16 -32.86031 118.24405 35100 ft 476 kts 109°
2026-05-04 10:16 -32.87040 118.28154 35364 ft 476 kts 109°
2026-05-04 10:16 -32.88045 118.31909 35610 ft 476 kts 109°
2026-05-04 10:17 -32.89046 118.35660 35863 ft 476 kts 109°
2026-05-04 10:17 -32.90043 118.39411 36102 ft 475 kts 109°
2026-05-04 10:19 -32.97026 118.65551 37370 ft 478 kts 113°
2026-05-04 10:19 -32.98320 118.69195 37376 ft 478 kts 116°
2026-05-04 10:19 -33.00963 118.76430 37375 ft 480 kts 115°
2026-05-04 10:20 -33.03617 118.83732 37373 ft 480 kts 115°
2026-05-04 10:20 -33.06267 118.91048 37371 ft 481 kts 115°
2026-05-04 10:21 -33.08914 118.98363 37375 ft 481 kts 115°
2026-05-04 10:21 -33.11545 119.05645 37381 ft 481 kts 115°
2026-05-04 10:22 -33.15507 119.16653 37394 ft 482 kts 115°
2026-05-04 10:23 -33.18152 119.24018 37394 ft 483 kts 115°
2026-05-04 10:25 -33.28662 119.53489 37409 ft 483 kts 115°
2026-05-04 10:25 -33.31267 119.60836 37405 ft 484 kts 116°
2026-05-04 10:26 -33.33900 119.68232 37399 ft 483 kts 116°
2026-05-04 10:26 -33.36520 119.75630 37399 ft 483 kts 115°
2026-05-04 10:27 -33.39128 119.83032 37403 ft 483 kts 116°
2026-05-04 10:27 -33.41745 119.90453 37415 ft 484 kts 116°
2026-05-04 10:28 -33.44338 119.97827 37411 ft 484 kts 116°
2026-05-04 10:28 -33.46933 120.05254 37411 ft 484 kts 116°
2026-05-04 10:29 -33.49524 120.12697 37412 ft 484 kts 116°
2026-05-04 10:29 -33.52116 120.20148 37417 ft 485 kts 116°
2026-05-04 10:30 -33.54690 120.27551 37424 ft 484 kts 116°
2026-05-04 10:30 -33.57281 120.34999 37419 ft 484 kts 116°
2026-05-04 10:31 -33.59858 120.42441 37420 ft 484 kts 116°
2026-05-04 10:32 -33.68819 120.68474 37419 ft 482 kts 116°
2026-05-04 10:33 -33.71367 120.75915 37410 ft 482 kts 116°
2026-05-04 10:33 -33.73916 120.83359 37402 ft 482 kts 116°
2026-05-04 10:34 -33.76434 120.90766 37409 ft 482 kts 116°
2026-05-04 10:34 -33.78967 120.98219 37422 ft 482 kts 116°
2026-05-04 10:35 -33.81507 121.05682 37417 ft 482 kts 116°
2026-05-04 10:35 -33.84029 121.13145 37410 ft 482 kts 116°
2026-05-04 10:36 -33.86531 121.20553 37409 ft 482 kts 116°
2026-05-04 10:36 -33.89043 121.28013 37409 ft 482 kts 116°
2026-05-04 10:37 -33.91553 121.35487 37420 ft 482 kts 116°
2026-05-04 10:37 -33.94061 121.42970 37415 ft 482 kts 116°
2026-05-04 10:39 -34.02779 121.69138 37408 ft 481 kts 116°
2026-05-04 10:40 -34.05264 121.76636 37410 ft 481 kts 116°
2026-05-04 10:40 -34.07732 121.84070 37410 ft 481 kts 116°
2026-05-04 10:41 -34.10209 121.91572 37407 ft 481 kts 116°
2026-05-04 10:41 -34.12677 121.99075 37408 ft 481 kts 116°
2026-05-04 10:42 -34.15142 122.06573 37412 ft 481 kts 116°
2026-05-04 10:42 -34.17602 122.14065 37409 ft 480 kts 116°
2026-05-04 10:43 -34.20028 122.21513 37406 ft 480 kts 115°
2026-05-04 10:45 -34.29776 122.51505 37411 ft 480 kts 115°
2026-05-04 10:45 -34.32199 122.59026 37407 ft 480 kts 115°
2026-05-04 10:46 -34.34620 122.66545 37404 ft 479 kts 115°
2026-05-04 10:46 -34.37031 122.74065 37400 ft 479 kts 115°
2026-05-04 10:47 -34.39415 122.81539 37405 ft 479 kts 115°
2026-05-04 10:47 -34.41822 122.89058 37398 ft 479 kts 115°
2026-05-04 10:49 -34.51387 123.19118 37413 ft 478 kts 115°
2026-05-04 10:50 -34.53771 123.26644 37392 ft 478 kts 115°
2026-05-04 10:52 -34.63208 123.56731 37396 ft 477 kts 115°
2026-05-04 10:52 -34.65547 123.64259 37396 ft 477 kts 114°
2026-05-04 10:54 -34.74867 123.94313 37394 ft 474 kts 114°
2026-05-04 10:56 -34.84041 124.24275 37397 ft 473 kts 114°
2026-05-04 10:57 -34.86322 124.31777 37394 ft 472 kts 114°
2026-05-04 10:57 -34.88600 124.39276 37391 ft 472 kts 114°
2026-05-04 10:58 -34.90854 124.46727 37389 ft 472 kts 114°
2026-05-04 10:58 -34.93125 124.54216 37391 ft 471 kts 114°
2026-05-04 10:59 -34.95393 124.61714 37388 ft 471 kts 113°
2026-05-04 10:59 -34.97634 124.69169 37385 ft 471 kts 113°
2026-05-04 11:00 -34.99881 124.76675 37385 ft 471 kts 113°
2026-05-04 11:02 -35.08617 125.06736 37382 ft 471 kts 109°
2026-05-04 11:05 -35.22258 125.64163 37377 ft 469 kts 109°
2026-05-04 11:06 -35.24070 125.71824 37373 ft 469 kts 109°
2026-05-04 11:06 -35.25879 125.79491 37371 ft 469 kts 109°
2026-05-04 11:10 -35.38353 126.33061 37366 ft 467 kts 108°
2026-05-04 11:12 -35.45368 126.63658 37372 ft 466 kts 108°
2026-05-04 11:12 -35.47109 126.71318 37364 ft 466 kts 108°
2026-05-04 11:13 -35.48844 126.78982 37359 ft 466 kts 108°
2026-05-04 11:13 -35.50572 126.86650 37361 ft 466 kts 108°
2026-05-04 11:14 -35.52291 126.94268 37362 ft 466 kts 108°
2026-05-04 11:16 -35.59112 127.24874 37349 ft 465 kts 107°
2026-05-04 11:16 -35.60813 127.32544 37358 ft 465 kts 107°
2026-05-04 11:17 -35.62507 127.40207 37350 ft 465 kts 107°
2026-05-04 11:19 -35.69217 127.70870 37356 ft 465 kts 107°
2026-05-04 11:19 -35.70887 127.78555 37349 ft 465 kts 107°
2026-05-04 11:20 -35.72548 127.86239 37348 ft 465 kts 107°
2026-05-04 11:20 -35.74196 127.93888 37347 ft 465 kts 107°
2026-05-04 11:22 -35.80745 128.24492 37344 ft 467 kts 107°
2026-05-04 11:23 -35.82388 128.32223 37349 ft 467 kts 107°
2026-05-04 11:25 -35.88082 128.59284 37338 ft 468 kts 106°
2026-05-04 11:25 -35.89707 128.67044 37339 ft 467 kts 106°
2026-05-04 11:27 -35.96944 129.01968 37340 ft 468 kts 106°
2026-05-04 11:28 -35.98539 129.09775 37336 ft 469 kts 106°
2026-05-04 11:28 -36.00121 129.17535 37332 ft 469 kts 106°
2026-05-04 11:29 -36.01721 129.25350 37331 ft 469 kts 106°
2026-05-04 11:29 -36.03307 129.33172 37341 ft 469 kts 106°
2026-05-04 11:33 -36.14243 129.87943 37322 ft 470 kts 107°
2026-05-04 11:33 -36.15794 129.95791 37328 ft 469 kts 107°
2026-05-04 11:34 -36.17337 130.03636 37319 ft 469 kts 107°
2026-05-04 11:34 -36.18868 130.11498 37314 ft 470 kts 107°
2026-05-04 11:35 -36.20386 130.19307 37315 ft 470 kts 106°
2026-05-04 11:35 -36.21912 130.27173 37316 ft 470 kts 107°
2026-05-04 11:36 -36.23441 130.35042 37317 ft 470 kts 107°
2026-05-04 11:36 -36.24958 130.42923 37308 ft 470 kts 106°
2026-05-04 11:37 -36.26468 130.50809 37311 ft 470 kts 107°
2026-05-04 11:37 -36.27970 130.58636 37314 ft 470 kts 106°
2026-05-04 11:38 -36.29468 130.66530 37315 ft 470 kts 107°
2026-05-04 11:38 -36.30965 130.74418 37311 ft 470 kts 107°
2026-05-04 11:39 -36.32464 130.82315 37310 ft 470 kts 106°
2026-05-04 11:41 -36.37623 131.09949 37303 ft 471 kts 106°
2026-05-04 11:41 -36.39093 131.17872 37302 ft 471 kts 106°
2026-05-04 11:42 -36.40552 131.25727 37313 ft 471 kts 106°
2026-05-04 11:42 -36.42016 131.33653 37302 ft 471 kts 106°
2026-05-04 11:43 -36.43473 131.41581 37301 ft 471 kts 106°
2026-05-04 11:43 -36.44922 131.49499 37297 ft 470 kts 106°
2026-05-04 11:44 -36.46357 131.57373 37306 ft 471 kts 106°
2026-05-04 11:44 -36.47792 131.65312 37299 ft 471 kts 106°
2026-05-04 11:45 -36.49220 131.73256 37288 ft 471 kts 106°
2026-05-04 11:45 -36.50647 131.81188 37289 ft 470 kts 106°
2026-05-04 11:46 -36.52067 131.89122 37289 ft 470 kts 105°
2026-05-04 11:46 -36.53462 131.97003 37290 ft 470 kts 105°
2026-05-04 11:47 -36.54870 132.04936 37291 ft 470 kts 105°
2026-05-04 11:47 -36.56275 132.12862 37304 ft 469 kts 105°
2026-05-04 11:48 -36.57672 132.20799 37294 ft 470 kts 105°
2026-05-04 11:48 -36.59064 132.28693 37281 ft 470 kts 105°
2026-05-04 11:49 -36.60452 132.36643 37279 ft 470 kts 105°
2026-05-04 11:49 -36.61834 132.44599 37275 ft 470 kts 105°
2026-05-04 11:50 -36.63212 132.52558 37286 ft 471 kts 105°
2026-05-04 11:50 -36.64574 132.60479 37279 ft 471 kts 105°
2026-05-04 11:51 -36.65944 132.68458 37279 ft 472 kts 105°
2026-05-04 11:51 -36.67304 132.76453 37287 ft 472 kts 105°
2026-05-04 11:52 -36.68656 132.84391 37286 ft 472 kts 105°
2026-05-04 11:52 -36.70022 132.92376 37278 ft 471 kts 105°
2026-05-04 11:53 -36.71370 133.00370 37271 ft 471 kts 105°
2026-05-04 11:53 -36.72706 133.08364 37281 ft 471 kts 105°
2026-05-04 11:55 -36.78017 133.40308 37269 ft 471 kts 105°
2026-05-04 11:56 -36.79339 133.48323 37261 ft 471 kts 105°
2026-05-04 11:56 -36.80644 133.56284 37259 ft 472 kts 104°
2026-05-04 11:57 -36.81950 133.64308 37273 ft 472 kts 104°
2026-05-04 11:57 -36.83245 133.72329 37262 ft 472 kts 104°
2026-05-04 11:58 -36.84545 133.80362 37259 ft 472 kts 104°
2026-05-04 11:58 -36.85839 133.88390 37253 ft 472 kts 104°
2026-05-04 11:59 -36.87120 133.96375 37259 ft 472 kts 104°
2026-05-04 11:59 -36.88404 134.04423 37254 ft 472 kts 104°
2026-05-04 12:00 -36.89678 134.12473 37250 ft 473 kts 104°
2026-05-04 12:00 -36.90946 134.20528 37245 ft 473 kts 104°
2026-05-04 12:01 -36.92203 134.28543 37261 ft 473 kts 104°
2026-05-04 12:02 -36.96610 134.56847 37258 ft 474 kts 104°
2026-05-04 12:03 -36.97851 134.64899 37248 ft 475 kts 104°
2026-05-04 12:03 -36.99087 134.73007 37246 ft 475 kts 104°
2026-05-04 12:04 -37.00317 134.81129 37246 ft 475 kts 104°
2026-05-04 12:04 -37.01550 134.89242 37258 ft 475 kts 104°
2026-05-04 12:05 -37.02772 134.97316 37240 ft 475 kts 104°
2026-05-04 12:05 -37.03998 135.05443 37240 ft 475 kts 104°
2026-05-04 12:06 -37.05222 135.13581 37239 ft 476 kts 104°
2026-05-04 12:06 -37.06437 135.21719 37243 ft 476 kts 104°
2026-05-04 12:07 -37.07648 135.29867 37231 ft 476 kts 103°
2026-05-04 12:07 -37.08847 135.37968 37232 ft 476 kts 103°
2026-05-04 12:08 -37.10055 135.46132 37228 ft 476 kts 104°
2026-05-04 12:08 -37.11248 135.54286 37224 ft 476 kts 103°
2026-05-04 12:09 -37.12433 135.62450 37226 ft 476 kts 103°
2026-05-04 12:09 -37.13610 135.70558 37219 ft 476 kts 103°
2026-05-04 12:10 -37.14791 135.78724 37217 ft 476 kts 103°
2026-05-04 12:10 -37.15967 135.86885 37221 ft 476 kts 103°
2026-05-04 12:11 -37.17135 135.95065 37216 ft 477 kts 103°
2026-05-04 12:11 -37.18279 136.03190 37215 ft 477 kts 103°
2026-05-04 12:12 -37.19437 136.11373 37208 ft 477 kts 103°
2026-05-04 12:12 -37.20597 136.19566 37207 ft 477 kts 103°
2026-05-04 12:14 -37.25138 136.52340 37201 ft 478 kts 103°
2026-05-04 12:15 -37.26270 136.60559 37192 ft 478 kts 103°
2026-05-04 12:15 -37.27382 136.68738 37188 ft 479 kts 103°
2026-05-04 12:16 -37.28501 136.76978 37200 ft 479 kts 103°
2026-05-04 12:16 -37.29613 136.85224 37190 ft 479 kts 102°
2026-05-04 12:17 -37.30714 136.93483 37188 ft 479 kts 102°
2026-05-04 12:17 -37.31803 137.01682 37185 ft 480 kts 102°
2026-05-04 12:18 -37.32902 137.09954 37190 ft 480 kts 102°
2026-05-04 12:18 -37.33993 137.18228 37186 ft 480 kts 102°
2026-05-04 12:19 -37.35088 137.26512 37181 ft 480 kts 102°
2026-05-04 12:19 -37.36167 137.34736 37175 ft 480 kts 102°
2026-05-04 12:20 -37.37237 137.43031 37184 ft 481 kts 102°
2026-05-04 12:20 -37.38307 137.51350 37180 ft 482 kts 102°
2026-05-04 12:21 -37.39369 137.59616 37174 ft 482 kts 102°
2026-05-04 12:21 -37.40428 137.67936 37178 ft 482 kts 102°
2026-05-04 12:22 -37.41477 137.76259 37178 ft 482 kts 102°
2026-05-04 12:22 -37.42527 137.84594 37167 ft 482 kts 102°
2026-05-04 12:23 -37.43579 137.92917 37168 ft 481 kts 102°
2026-05-04 12:23 -37.44612 138.01199 37159 ft 482 kts 102°
2026-05-04 12:24 -37.45638 138.09539 37164 ft 482 kts 102°
2026-05-04 12:24 -37.46672 138.17890 37155 ft 483 kts 102°
2026-05-04 12:25 -37.47700 138.26244 37151 ft 483 kts 102°
2026-05-04 12:25 -37.48705 138.34554 37156 ft 483 kts 101°
2026-05-04 12:26 -37.49696 138.42916 37157 ft 483 kts 101°
2026-05-04 12:26 -37.50682 138.51276 37151 ft 483 kts 101°
2026-05-04 12:27 -37.51665 138.59660 37151 ft 484 kts 101°
2026-05-04 12:27 -37.52634 138.68039 37149 ft 483 kts 101°
2026-05-04 12:28 -37.53600 138.76356 37142 ft 483 kts 101°
2026-05-04 12:28 -37.54571 138.84741 37141 ft 484 kts 101°
2026-05-04 12:29 -37.55533 138.93137 37134 ft 484 kts 101°
2026-05-04 12:29 -37.56483 139.01526 37148 ft 484 kts 101°
2026-05-04 12:30 -37.57430 139.09941 37132 ft 485 kts 101°
2026-05-04 12:30 -37.58371 139.18301 37131 ft 485 kts 101°
2026-05-04 12:31 -37.59305 139.26720 37137 ft 485 kts 101°
2026-05-04 12:31 -37.60241 139.35148 37148 ft 486 kts 101°
2026-05-04 12:32 -37.61623 139.47756 37147 ft 486 kts 101°
2026-05-04 12:33 -37.62537 139.56200 37117 ft 487 kts 101°
2026-05-04 12:33 -37.63450 139.64667 37145 ft 487 kts 101°
2026-05-04 12:34 -37.64362 139.73138 37133 ft 489 kts 101°
2026-05-04 12:34 -37.65258 139.81584 37127 ft 489 kts 101°
2026-05-04 12:35 -37.66154 139.90087 37115 ft 489 kts 101°
2026-05-04 12:35 -37.67054 139.98585 37132 ft 488 kts 101°
2026-05-04 12:36 -37.67945 140.07072 37114 ft 487 kts 100°
2026-05-04 12:36 -37.68821 140.15511 37110 ft 488 kts 100°
2026-05-04 12:37 -37.69692 140.24028 37103 ft 490 kts 100°
2026-05-04 12:37 -37.70559 140.32555 37116 ft 490 kts 100°
2026-05-04 12:38 -37.71433 140.41095 37110 ft 490 kts 100°
2026-05-04 12:38 -37.72286 140.49580 37101 ft 490 kts 100°
2026-05-04 12:39 -37.73140 140.58129 37100 ft 491 kts 100°
2026-05-04 12:39 -37.73991 140.66688 37116 ft 491 kts 100°
2026-05-04 12:40 -37.74830 140.75259 37086 ft 492 kts 99°
2026-05-04 12:40 -37.75528 140.83865 37086 ft 494 kts 96°
2026-05-04 12:41 -37.75858 140.92497 37103 ft 496 kts 94°
2026-05-04 12:41 -37.76074 141.01218 37099 ft 496 kts 95°
2026-05-04 12:42 -37.76360 141.09927 37087 ft 496 kts 95°
2026-05-04 12:42 -37.76714 141.18629 37100 ft 496 kts 96°
2026-05-04 12:43 -37.77064 141.27274 37087 ft 496 kts 95°
2026-05-04 12:43 -37.77388 141.35980 37089 ft 496 kts 95°
2026-05-04 12:44 -37.77698 141.44682 37079 ft 496 kts 95°
2026-05-04 12:44 -37.78004 141.53377 37080 ft 496 kts 95°
2026-05-04 12:45 -37.78299 141.62079 37064 ft 492 kts 95°
2026-05-04 12:45 -37.78581 141.70574 37030 ft 487 kts 95°
2026-05-04 12:46 -37.78877 141.79149 37026 ft 490 kts 95°
2026-05-04 12:46 -37.79168 141.87780 37036 ft 493 kts 95°
2026-05-04 12:47 -37.79440 141.96470 37034 ft 496 kts 95°
2026-05-04 12:47 -37.79657 142.03710 37048 ft 496 kts 94°
2026-05-04 12:48 -37.79953 142.13858 37066 ft 497 kts 95°
2026-05-04 12:48 -37.80217 142.22593 37055 ft 497 kts 94°
2026-05-04 12:49 -37.80477 142.31331 37078 ft 498 kts 95°
2026-05-04 12:49 -37.80685 142.38602 37037 ft 498 kts 94°
2026-05-04 12:50 -37.80955 142.48795 37038 ft 500 kts 94°
2026-05-04 12:50 -37.81143 142.56096 37065 ft 500 kts 94°
2026-05-04 12:51 -37.81374 142.64891 37058 ft 501 kts 94°
2026-05-04 12:51 -37.81597 142.73712 37060 ft 502 kts 94°
2026-05-04 12:51 -37.81704 142.78134 36609 ft 504 kts 94°
2026-05-04 12:52 -37.81841 142.83983 35691 ft 500 kts 95°
2026-05-04 12:52 -37.81940 142.88362 35024 ft 497 kts 95°
2026-05-04 12:52 -37.82039 142.92718 34365 ft 495 kts 95°
2026-05-04 12:52 -37.82106 142.95658 33925 ft 494 kts 95°
2026-05-04 12:53 -37.82206 142.99936 33174 ft 493 kts 96°
2026-05-04 12:53 -37.82305 143.04269 32472 ft 493 kts 96°
2026-05-04 12:53 -37.82402 143.08605 31660 ft 493 kts 97°
2026-05-04 12:53 -37.82499 143.12936 30880 ft 493 kts 98°
2026-05-04 12:54 -37.82593 143.17263 30109 ft 492 kts 98°
2026-05-04 12:54 -37.82713 143.23000 28912 ft 492 kts 98°
2026-05-04 12:54 -37.82773 143.25926 28349 ft 493 kts 97°
2026-05-04 12:54 -37.82858 143.30199 27466 ft 491 kts 97°
2026-05-04 12:55 -37.82938 143.34501 26587 ft 488 kts 96°
2026-05-04 12:55 -37.83016 143.38780 25731 ft 486 kts 96°
2026-05-04 12:55 -37.83091 143.43042 24903 ft 483 kts 96°
2026-05-04 12:55 -37.83168 143.47271 24081 ft 479 kts 96°
2026-05-04 12:56 -37.83249 143.51466 23244 ft 476 kts 94°
2026-05-04 12:56 -37.83327 143.55638 22306 ft 473 kts 94°
2026-05-04 12:56 -37.83400 143.59732 21421 ft 469 kts 94°
2026-05-04 12:56 -37.83471 143.63843 20548 ft 466 kts 93°
2026-05-04 12:57 -37.83540 143.67922 19683 ft 462 kts 93°
2026-05-04 12:57 -37.83609 143.71975 18855 ft 459 kts 93°
2026-05-04 12:57 -37.83676 143.75997 18022 ft 455 kts 92°
2026-05-04 12:57 -37.83742 143.79981 17119 ft 452 kts 92°
2026-05-04 12:58 -37.83805 143.83949 16231 ft 449 kts 92°
2026-05-04 12:58 -37.83866 143.87881 15641 ft 442 kts 92°
2026-05-04 12:58 -37.83940 143.92908 15309 ft 423 kts 92°
2026-05-04 12:58 -37.83975 143.95402 15131 ft 415 kts 92°
2026-05-04 12:59 -37.83873 143.98980 14868 ft 410 kts 84°
2026-05-04 12:59 -37.83481 144.02533 14313 ft 406 kts 82°
2026-05-04 12:59 -37.83073 144.06051 13691 ft 404 kts 82°
2026-05-04 12:59 -37.82664 144.09555 13053 ft 401 kts 82°
2026-05-04 13:00 -37.82258 144.13025 12443 ft 397 kts 82°
2026-05-04 13:00 -37.81858 144.16467 11827 ft 394 kts 82°
2026-05-04 13:00 -37.81459 144.19878 11227 ft 391 kts 82°
2026-05-04 13:00 -37.81063 144.23257 10830 ft 383 kts 82°
2026-05-04 13:01 -37.80680 144.26513 10704 ft 367 kts 82°
2026-05-04 13:01 -37.80318 144.29608 10579 ft 354 kts 82°
2026-05-04 13:01 -37.79962 144.32625 10456 ft 341 kts 82°
2026-05-04 13:01 -37.79614 144.35541 10333 ft 330 kts 82°
2026-05-04 13:02 -37.79273 144.38376 10136 ft 323 kts 82°
2026-05-04 13:02 -37.78941 144.41153 10016 ft 318 kts 82°
2026-05-04 13:02 -37.78633 144.43928 9616 ft 323 kts 86°
2026-05-04 13:02 -37.78721 144.46747 9271 ft 318 kts 101°
2026-05-04 13:03 -37.79081 144.49486 8909 ft 315 kts 102°
2026-05-04 13:03 -37.79430 144.52207 8311 ft 312 kts 101°
2026-05-04 13:03 -37.79767 144.54906 7689 ft 312 kts 101°
2026-05-04 13:03 -37.80096 144.57577 7267 ft 309 kts 101°
2026-05-04 13:04 -37.80420 144.60214 7029 ft 297 kts 101°
2026-05-04 13:04 -37.80730 144.62748 6782 ft 287 kts 101°
2026-05-04 13:04 -37.81034 144.65212 6536 ft 278 kts 101°
2026-05-04 13:04 -37.81339 144.67678 5947 ft 289 kts 101°
2026-05-04 13:05 -37.81652 144.70163 5632 ft 283 kts 101°
2026-05-04 13:05 -37.82035 144.72590 5192 ft 281 kts 111°
2026-05-04 13:05 -37.82803 144.74761 4996 ft 270 kts 123°
2026-05-04 13:05 -37.83680 144.76876 4994 ft 270 kts 116°
2026-05-04 13:06 -37.84141 144.79103 4993 ft 256 kts 97°
2026-05-04 13:06 -37.84106 144.81365 4471 ft 263 kts 81°
2026-05-04 13:06 -37.83802 144.83675 3763 ft 270 kts 74°
2026-05-04 13:06 -37.82925 144.85713 3063 ft 263 kts 34°
2026-05-04 13:07 -37.81380 144.86564 2836 ft 231 kts 353°
2026-05-04 13:07 -37.79855 144.86342 2566 ft 216 kts 341°
2026-05-04 13:07 -37.78431 144.86041 2286 ft 204 kts 342°
2026-05-04 13:07 -37.77102 144.85776 2050 ft 182 kts 342°
2026-05-04 13:08 -37.75917 144.85549 1791 ft 163 kts 342°
2026-05-04 13:08 -37.74862 144.85348 1595 ft 142 kts 342°
2026-05-04 13:08 -37.73919 144.85168 1379 ft 134 kts 345°
2026-05-04 13:08 -37.73001 144.84986 1213 ft 132 kts 348°
2026-05-04 13:09 -37.72095 144.84805 1034 ft 132 kts 350°
2026-05-04 13:09 -37.71194 144.84624 877 ft 131 kts 349°
2026-05-04 13:09 -37.70301 144.84420 706 ft 131 kts 349°
2026-05-04 13:09 -37.69409 144.84257 572 ft 132 kts 350°
2026-05-04 13:10 -37.68502 144.84088 377 ft 130 kts 351°
2026-05-04 13:10 -37.67706 144.83936 363 ft 94 kts 352°
2026-05-04 13:10 -37.67230 144.83846 379 ft 46 kts 351°
2026-05-04 13:10 -37.66994 144.83845 386 ft 26 kts 12°
2026-05-04 13:11 -37.66879 144.83894 390 ft 13 kts 21°
2026-05-04 13:11 -37.66812 144.83928 392 ft 1 kts 24°
2026-05-04 13:11 -37.66809 144.83930 392 ft 2 kts 29°
2026-05-04 13:11 -37.66800 144.83957 392 ft 6 kts 82°
2026-05-04 13:12 -37.66846 144.83994 390 ft 14 kts 171°
2026-05-04 13:12 -37.66973 144.84017 386 ft 23 kts 172°
2026-05-04 13:12 -37.67146 144.84050 381 ft 28 kts 171°
2026-05-04 13:12 -37.67341 144.84086 375 ft 26 kts 171°
2026-05-04 13:13 -37.67478 144.84124 372 ft 16 kts 147°
2026-05-04 13:13 -37.67495 144.84236 373 ft 13 kts 80°
2026-05-04 13:13 -37.67480 144.84347 376 ft 13 kts 80°
2026-05-04 13:13 -37.67465 144.84461 378 ft 14 kts 81°
2026-05-04 13:14 -37.67452 144.84583 380 ft 14 kts 82°
2026-05-04 13:14 -37.67439 144.84699 382 ft 8 kts 82°
2026-05-04 13:14 -37.67464 144.84735 381 ft 6 kts 183°
2026-05-04 13:14 -37.67506 144.84738 380 ft 2 kts 171°
2026-05-04 13:15 -37.67523 144.84741 380 ft 1 kts 171°
2026-05-04 13:15 -37.67525 144.84742 379 ft 0 kts 171°